TOURFACTS.DK  
Stats and Facts from Tour de France.

Tour de France 2018 starts in 12 days
  Riders   Stages   Teams   Summits   Yearly  


 
Search by year

After 2017 - Stage 21:
 14824 starters.
  5132 different riders.
  639 teams.
  2232 stages.
  456 restdays.
  439589.60 km.
  5653 abandonnees.


Top 3
GC
Christopher Froome86:20:55
Rigoberto Urán86:21:49
Romain Bardet86:23:15
Climb
Warren Barguil169 pt.
Primoz Roglic80 pt.
Thomas De Gendt64 pt.
Sprint
Michael Matthews359 pt.
André Greipel234 pt.
Edvald Boasson Hagen220 pt.
Youth
Simon Yates86:27:09
Louis Meintjes86:29:15
Emanuel Buchmann86:54:16
Facts from Tour de France 1949
  |   Stages.  |   Stage winners.  |   Days in yellow  |   Average speed.  |   Route.  |   Teams.  |   All riders.  |   Rookies.  |  

  |   Withdrawls.  |   GC.  |   Polka  |   Green  |   White  |   Summits. (In tour)  |   Miscellaneous.  |  

Stage 2 on 01 - 07 - 1949
         Owning:    Roger Lambrecht    
Pick a stage:  1 2 3 4 5 6 7 8 9 10 11 12 13 14 15 16 17 18 19 20 21
  ReimsBruxelles | Dist: 273.00 km.

Average speed for all riders in stage:  31,081 km./hr.
    Place:Name:Team:Time:Km/h:
BELRoger LambrechtBELBelgium08:37:58  +  00:00:00=31,624 
FRAJacques MarinelliFRAIle De France08:37:58  +  00:00:00=31,624 
FRALucien TeisseireFRAFrance08:39:14  +  00:01:16=31,547 
4 BELMarcel KintBELBelgium08:39:17  +  00:01:19=31,543 
5 ITAMario RicciITAItaly08:39:17  +  00:01:19=31,543 
6 BELStan OckersBELBelgium08:39:31  +  00:01:33=31,529 
7 BELLeon JomauxBELBelgium08:40:40  +  00:02:42=31,460 
8 FRAEloi TassinFRAWest-North08:40:43  +  00:02:45=31,457 
9 SUIFerdi KüblerCHESwitzerland08:41:15  +  00:03:17=31,424 
10 ITAGino BartaliITAItaly08:41:15  +  00:03:17=31,424 
11 ITAFausto CoppiITAItaly08:41:15  +  00:03:17=31,424 
12 FRAJean RobicFRAWest-North08:41:15  +  00:03:17=31,424 
13 ITASylvio PedroniITACadetti Italiens08:41:15  +  00:03:17=31,424 
14 BELMarcel DupontBELAiglons Belges08:41:15  +  00:03:17=31,424 
15 FRAPierre CoganFRAWest-North08:41:15  +  00:03:17=31,424 
16 FRARoger PontetFRAWest-North08:41:15  +  00:03:17=31,424 
17 GEREdouard KlabinskiFRAWest-North08:41:15  +  00:03:17=31,424 
18 ITAFermo CamelliniFRASouth-East08:41:15  +  00:03:17=31,424 
19 BELJacques GeusBELAiglons Belges08:41:43  +  00:03:45=31,396 
20 FRAJean-Marie GoasmatFRAWest-North08:41:43  +  00:03:45=31,396 
21 ITAGino SciardisITAItaly08:42:03  +  00:04:05=31,376 
22 BELRik Van SteenbergenBELBelgium08:42:03  +  00:04:05=31,376 
23 ITAGiuseppe CeramiITACadetti Italiens08:42:03  +  00:04:05=31,376 
24 FRABernard GauthierFRAFrance08:42:03  +  00:04:05=31,376 
25 FRAGuy LapébieFRAFrance08:42:03  +  00:04:05=31,376 
26 BELEdward Van DijckBELBelgium08:42:03  +  00:04:05=31,376 
27 BELRaymond ImpanisBELBelgium08:42:03  +  00:04:05=31,376 
28 BELNorbert CallensBELBelgium08:42:03  +  00:04:05=31,376 
29 FRAGeorges RamouluxFRACenter-South West08:42:03  +  00:04:05=31,376 
30 FRAEmile IdéeFRAIle De France08:42:03  +  00:04:05=31,376 
31 FRAMarcel DussaultFRACenter-South West08:42:03  +  00:04:05=31,376 
32 LUXJean GoldschmitLUXLuxembourg08:42:03  +  00:04:05=31,376 
33 FRAJean ReyFRASouth-East08:42:03  +  00:04:05=31,376 
34 FRADominique ForliniFRAIle De France08:42:03  +  00:04:05=31,376 
35 BELMarcel HendrickxBELAiglons Belges08:42:03  +  00:04:05=31,376 
36 FRALouis CaputFRAIle De France08:42:03  +  00:04:05=31,376 
37 ITAAlfredo MartiniITACadetti Italiens08:42:03  +  00:04:05=31,376 
38 ITAVittorio MagniITACadetti Italiens08:42:03  +  00:04:05=31,376 
39 BELJoseph VerhaertBELAiglons Belges08:42:03  +  00:04:05=31,376 
40 FRAAndré BruléFRAIle De France08:42:03  +  00:04:05=31,376 
41 ITAÉdouard FachleitnerFRASouth-East08:42:03  +  00:04:05=31,376 
42 FRARoger LevequeFRACenter-South West08:42:03  +  00:04:05=31,376 
43 BELLucien MaelfaitFRAWest-North08:42:03  +  00:04:05=31,376 
44 FRAAntonin RollandFRASouth-East08:42:03  +  00:04:05=31,376 
45 FRARoger Le NizerhyFRAWest-North08:42:03  +  00:04:05=31,376 
46 FRALouis ThiétardFRAIle De France08:42:03  +  00:04:05=31,376 
47 ITAGiuseppe TaccaFRAIle De France08:42:03  +  00:04:05=31,376 
48 FRAEdouard MullerFRAIle De France08:42:03  +  00:04:05=31,376 
49 FRAPierre MolinerisFRASouth-East08:42:03  +  00:04:05=31,376 
50 BELDésiré KeteleerBELBelgium08:42:03  +  00:04:05=31,376 
51 SUIErnst StettlerCHESwitzerland08:42:03  +  00:04:05=31,376 
52 SUIGeorges AeschlimannCHESwitzerland08:42:03  +  00:04:05=31,376 
53 LUXJean DiederichLUXLuxembourg08:42:03  +  00:04:05=31,376 
54 ITALuciano PezziITAItaly08:42:03  +  00:04:05=31,376 
55 LUXJean KirchenLUXLuxembourg08:42:03  +  00:04:05=31,376 
56 FRALouis DeprezFRAFrance08:42:03  +  00:04:05=31,376 
57 ITAEttore MilanoITAItaly08:42:03  +  00:04:05=31,376 
58 SUIGottfried WeilenmannCHESwitzerland08:42:03  +  00:04:05=31,376 
59 FRARené ViettoFRAFrance08:42:03  +  00:04:05=31,376 
60 BELBriek SchotteBELBelgium08:42:03  +  00:04:05=31,376 
61 FRALouison BobetFRAFrance08:42:03  +  00:04:05=31,376 
62 ITASerifano BiagioniITAItaly08:42:03  +  00:04:05=31,376 
63 FRARobert ChapatteFRAFrance08:42:03  +  00:04:05=31,376 
64 BELRoger GhyselinckBELBelgium08:42:35  +  00:04:37=31,344 
65 SUIPierre BrambillaFRASouth-East08:42:35  +  00:04:37=31,344 
66 ITANello LaurediFRASouth-East08:42:58  +  00:05:00=31,321 
67 FRAJean-Apotre LazaridesFRAFrance08:43:36  +  00:05:38=31,283 
68 FRAMaurice DiotFRAFrance08:43:36  +  00:05:38=31,283 
69 FRARaoul RemyFRASouth-East08:43:36  +  00:05:38=31,283 
70 ESPDalmácio LangaricaESPSpain08:45:36  +  00:07:38=31,164 
71 LUXRené BieverLUXLuxembourg08:47:33  +  00:09:35=31,049 
72 ITAAttilio RedolfiFRAIle De France08:49:08  +  00:11:10=30,956 
73 BELFlorent MathieuBELBelgium08:49:08  +  00:11:10=30,956 
74 ITAAngelo BrignoleITAItaly08:49:08  +  00:11:10=30,956 
75 FRAGeorges MartinFRASouth-East08:49:08  +  00:11:10=30,956 
76 GERCésar MarcelakFRAWest-North08:49:08  +  00:11:10=30,956 
77 FRAPaul GiguetFRASouth-East08:49:08  +  00:11:10=30,956 
78 FRAAndre MahéFRAWest-North08:49:08  +  00:11:10=30,956 
79 ITABruno GaronziFRACenter-South West08:49:08  +  00:11:10=30,956 
80 MARCustodio Dos ReisFRACenter-South West08:49:08  +  00:11:10=30,956 
81 ITAGuido De SantiITAItaly08:49:08  +  00:11:10=30,956 
82 FRAFrançois PersonFRAWest-North08:49:08  +  00:11:10=30,956 
83 ITAArmando PeverelliITACadetti Italiens08:49:08  +  00:11:10=30,956 
84 FRARaphaël GeminianiFRAFrance08:49:08  +  00:11:10=30,956 
85 NEDWim De RuyterNLDHolland08:49:08  +  00:11:10=30,956 
86 FRARaymond LucasFRAIle De France08:49:08  +  00:11:10=30,956 
87 NEDFrans PauwelsNLDHolland08:49:08  +  00:11:10=30,956 
88 ITAGiuseppe AusendaITACadetti Italiens08:49:08  +  00:11:10=30,956 
89 ITAAdolphe DeleddaFRASouth-East08:49:08  +  00:11:10=30,956 
90 FRAAnge Le StratFRAWest-North08:49:08  +  00:11:10=30,956 
91 ESPBernardo RuízESPSpain08:51:12  +  00:13:14=30,836 
92 ITAGiovanni CorrieriITAItaly08:51:12  +  00:13:14=30,836 
93 FRACamille DanguillaumeFRAFrance08:51:12  +  00:13:14=30,836 
94 FRAJean BlancFRACenter-South West08:51:12  +  00:13:14=30,836 
95 ITAVincenzo RosselloITAItaly08:51:12  +  00:13:14=30,836 
96 FRALucien LazaridesFRAFrance08:51:12  +  00:13:14=30,836 
97 FRAGeorges GuillierFRAIle De France08:51:12  +  00:13:14=30,836 
98 ESPEmilio RodriguezESPSpain08:53:13  +  00:15:15=30,719 
99 ESPJulián BerrenderoESPSpain08:53:13  +  00:15:15=30,719 
100 ITABruno PasquiniITAItaly08:53:13  +  00:15:15=30,719 
101 FRAPaul PineauFRACenter-South West08:53:13  +  00:15:15=30,719 
102 ESPJosé SerraESPSpain08:53:13  +  00:15:15=30,719 
103 FRARobert DesbatsFRACenter-South West08:58:50  +  00:20:52=30,399 
104 FRAHenri MassalFRACenter-South West08:58:50  +  00:20:52=30,399 
105 BELJean BreuerBELAiglons Belges08:58:50  +  00:20:52=30,399 
106 FRAAlbert DolhatsFRACenter-South West08:58:50  +  00:20:52=30,399 
107 SUIRoger AeschlimannCHESwitzerland09:00:38  +  00:22:40=30,298 
108 SUIHans HutmacherCHESwitzerland09:00:38  +  00:22:40=30,298 
109 NEDJan LambrichsNLDHolland09:00:54  +  00:22:56=30,283 
110 NEDHuub SijenNLDHolland09:00:54  +  00:22:56=30,283 
111 NEDAndré De KorverNLDHolland09:03:17  +  00:25:19=30,150 
112 BELMarcel De MulderBELAiglons Belges09:17:04  +  00:39:06=29,404 
113 LUXMarcel ErnzerLUXLuxembourg09:41:46  +  01:03:48=28,156 
114 NEDHenk de HoogNLDHolland09:50:35  +  01:12:37=27,735 

Withdrawls: 4
 
Rider
Team
Reason
75  FRARobert DorgebrayFRAIle De FranceDid not finish
98  FRARoger BuchonnetFRACenter-South WestDid not finish
104  PORAntoine GomezFRACenter-South WestDid not finish
117  ITAPaul NeriFRASouth-EastDid not finish

Todays birthdays.

1875  Jules Sales
1888  Leon Lannoy
1922  Henri Surbatis
1932  Ferdinand Devèze
1939  Dieter Puschel
1961  Gerhard Zadrobilek
1964  Javier Duch
1965  Clarence Knickman
1968  Michael Sandstød
1986  Simon Spilak




Visits: